EW1390 Weather Reports


Display with metric or nautical units.
time (UTC)temp
F
wind
direction
speed
MPH
gust
MPH
rain 1hr
in
rain 24hr
in
rain mn
in
humidity
%
barometer
mb
20260831030050 70 263 0.0 1.0 0.00 0.00 0.00 50 1003.6
20260831024556 72 263 0.0 0.0 0.00 0.00 0.00 48 1003.5
20260831023056 74 263 0.0 2.0 0.00 0.00 0.00 45 1003.4
20260831021547 76 263 0.0 2.0 0.00 0.00 0.00 43 1003.4
20260831020108 78 263 0.0 0.0 0.00 0.00 0.00 40 1003.5
20260831014546 80 263 0.0 1.0 0.00 0.00 0.00 38 1003.5
20260831013045 82 263 0.0 2.0 0.00 0.00 0.00 35 1003.5
20260831011556 83 263 0.0 0.0 0.00 0.00 0.00 33 1003.5
20260831010045 84 263 0.0 4.0 0.00 0.00 0.00 29 1003.5
20260831004548 86 263 0.0 2.0 0.00 0.00 0.00 30 1003.6
20260831003042 85 263 0.0 3.0 0.00 0.00 0.00 30 1003.6
20260831001542 86 223 2.0 4.0 0.00 0.00 0.00 28 1003.6
20260831000041 87 214 0.0 5.0 0.00 0.00 0.00 28 1003.6
20260830234639 87 38 0.0 4.0 0.00 0.00 0.00 28 1003.7
20260830233040 87 195 0.0 4.0 0.00 0.00 0.00 29 1003.9
20260830231537 87 190 0.0 4.0 0.00 0.00 0.00 29 1003.9
20260830230033 87 225 1.0 6.0 0.00 0.00 0.00 29 1004.0
20260830224535 87 175 0.0 3.0 0.00 0.00 0.00 29 1004.1
20260830223031 87 292 0.0 5.0 0.00 0.00 0.00 29 1004.2
20260830221529 87 107 0.0 4.0 0.00 0.00 0.00 28 1004.4
20260830220025 86 107 0.0 5.0 0.00 0.00 0.00 29 1004.5
20260830214523 86 221 2.0 6.0 0.00 0.00 0.00 28 1004.8
20260830213035 86 229 0.0 7.0 0.00 0.00 0.00 29 1004.9
20260830211534 86 277 1.0 7.0 0.00 0.00 0.00 29 1005.1
20260830210044 86 189 1.0 4.0 0.00 0.00 0.00 28 1005.0
20260830204520 86 126 0.0 5.0 0.00 0.00 0.00 28 1005.0
20260830203030 86 201 2.0 10.0 0.00 0.00 0.00 28 1005.1
20260830201517 86 125 0.0 4.0 0.00 0.00 0.00 28 1005.0
20260830200015 85 311 0.0 8.0 0.00 0.00 0.00 29 1005.0
20260830194514 85 134 1.0 7.0 0.00 0.00 0.00 29 1005.2
20260830193018 85 252 2.0 4.0 0.00 0.00 0.00 29 1005.3
20260830191517 84 125 1.0 6.0 0.00 0.00 0.00 29 1005.4
20260830190008 84 235 0.0 5.0 0.00 0.00 0.00 30 1005.4
20260830184508 84 262 1.0 6.0 0.00 0.00 0.00 31 1005.5
20260830183004 84 201 1.0 4.0 0.00 0.00 0.00 30 1005.7
20260830181503 83 109 1.0 3.0 0.00 0.00 0.00 29 1005.6
20260830180059 82 205 0.0 6.0 0.00 0.00 0.00 31 1005.6
20260830174600 81 247 0.0 2.0 0.00 0.00 0.00 35 1005.5
20260830173051 79 247 0.0 3.0 0.00 0.00 0.00 37 1005.5
20260830171546 74 247 0.0 2.0 0.00 0.00 0.00 44 1005.4
20260830170042 70 247 0.0 2.0 0.00 0.00 0.00 56 1005.2
20260830164541 65 247 0.0 0.0 0.00 0.00 0.00 71 1005.4
20260830163032 63 247 0.0 1.0 0.00 0.00 0.00 77 1005.3
20260830161534 60 247 0.0 0.0 0.00 0.00 0.00 79 1005.4
20260830160023 58 247 0.0 0.0 0.00 0.00 0.00 80 1005.4
20260830154525 57 247 0.0 0.0 0.00 0.00 0.00 80 1005.5
20260830153022 55 247 0.0 0.0 0.00 0.00 0.00 80 1005.4
20260830151517 54 247 0.0 0.0 0.00 0.00 0.00 80 1005.6
20260830150016 53 247 0.0 0.0 0.00 0.00 0.00 79 1005.5
20260830144515 53 247 0.0 0.0 0.00 0.00 0.00 79 1005.6
20260830143023 52 247 0.0 0.0 0.00 0.00 0.00 79 1005.6
20260830141516 52 247 0.0 0.0 0.00 0.00 0.00 79 1005.5
20260830140016 52 247 0.0 0.0 0.00 0.00 0.00 78 1005.3
20260830134513 52 247 0.0 0.0 0.00 0.00 0.00 78 1005.1
20260830133010 52 247 0.0 0.0 0.00 0.00 0.00 78 1004.9
20260830131509 52 247 0.0 1.0 0.00 0.00 0.00 78 1004.9
20260830130008 52 247 0.0 0.0 0.00 0.00 0.00 78 1004.9
20260830124509 52 247 0.0 0.0 0.00 0.00 0.00 78 1004.9
20260830123006 52 247 0.0 0.0 0.00 0.00 0.00 77 1004.8
20260830121504 52 247 0.0 0.0 0.00 0.00 0.00 76 1004.7
20260830120004 52 247 0.0 0.0 0.00 0.00 0.00 76 1004.7
20260830114503 52 247 0.0 1.0 0.00 0.00 0.00 76 1004.7
20260830113002 52 247 0.0 0.0 0.00 0.00 0.00 76 1004.8
20260830111601 53 247 0.0 0.0 0.00 0.00 0.00 75 1004.9
20260830110059 53 247 0.0 0.0 0.00 0.00 0.00 75 1004.8
20260830104559 53 247 0.0 0.0 0.00 0.00 0.00 74 1004.7
20260830103057 53 247 0.0 0.0 0.00 0.00 0.00 74 1004.8
20260830101605 54 247 0.0 0.0 0.00 0.00 0.00 73 1004.8
20260830100054 54 247 0.0 0.0 0.00 0.00 0.00 73 1004.8
20260830094552 54 247 0.0 0.0 0.00 0.00 0.00 72 1004.8
20260830093050 54 247 0.0 0.0 0.00 0.00 0.00 71 1004.8
20260830091548 54 247 0.0 1.0 0.00 0.00 0.00 71 1004.9
20260830090053 55 247 0.0 1.0 0.00 0.00 0.00 70 1005.0
20260830084544 55 247 0.0 0.0 0.00 0.00 0.00 70 1005.2
20260830083053 55 247 0.0 0.0 0.00 0.00 0.00 69 1005.1
20260830081541 55 247 0.0 0.0 0.00 0.00 0.00 69 1005.3
20260830080039 55 247 0.0 0.0 0.00 0.00 0.00 68 1005.2
20260830074547 56 247 0.0 0.0 0.00 0.00 0.00 67 1005.2
20260830073035 56 247 0.0 0.0 0.00 0.00 0.00 66 1005.2
20260830071534 57 247 0.0 0.0 0.00 0.00 0.00 65 1005.1
20260830070031 57 247 0.0 0.0 0.00 0.00 0.00 64 1005.2
20260830064528 57 247 0.0 0.0 0.00 0.00 0.00 64 1005.2
20260830063028 58 247 0.0 0.0 0.00 0.00 0.00 63 1005.2
20260830061526 59 247 0.0 0.0 0.00 0.00 0.00 62 1005.2
20260830060027 59 247 0.0 0.0 0.00 0.00 0.00 60 1005.3
20260830054526 60 247 0.0 1.0 0.00 0.00 0.00 60 1005.3
20260830053026 61 247 0.0 1.0 0.00 0.00 0.00 58 1005.4
20260830051526 61 247 0.0 0.0 0.00 0.00 0.00 57 1005.3
20260830050023 62 247 0.0 0.0 0.00 0.00 0.00 55 1005.4
20260830044523 63 247 0.0 0.0 0.00 0.00 0.00 55 1005.3
20260830043027 64 247 0.0 0.0 0.00 0.00 0.00 54 1005.2
20260830041521 65 247 0.0 0.0 0.00 0.00 0.00 52 1005.1
20260830040021 66 247 0.0 0.0 0.00 0.00 0.00 51 1005.1
20260830034520 67 247 0.0 0.0 0.00 0.00 0.00 51 1004.9
20260830033020 68 247 0.0 0.0 0.00 0.00 0.00 51 1004.7
20260830031521 70 247 0.0 0.0 0.00 0.00 0.00 49 1004.5